Vorticity
-15 1 17 10 3 8 15 9 1 10 15 15 23 9 -6 6 13 8 7 7 6 5 6 6 6 6 5 4 5 5 6 7 6 6 6 7 8 8 9 8 7 8
-16 -14 15 19 4 3 13 14 5 4 12 23 20 -0 -0 14 11 7 10 6 5 6 5 5 7 7 6 5 5 5 6 7 7 7 6 8 9 8 8 7 7 7
8 -11 6 18 8 2 7 13 11 6 18 32 14 -6 6 13 6 9 9 5 6 5 5 6 6 7 7 6 5 5 8 9 9 8 7 10 10 10 10 8 8 8
17 -1 3 14 8 5 10 10 7 10 30 29 -9 -18 9 11 4 10 8 5 5 4 8 9 7 7 6 5 5 6 9 11 10 9 8 10 10 10 11 10 10 10
16 2 3 10 4 7 12 6 6 18 37 24 -19 -20 10 12 6 10 7 5 4 4 10 10 7 7 4 4 7 7 9 10 9 9 8 8 9 9 9 9 9 9
11 4 4 5 7 12 7 9 23 29 31 20 -6 -5 13 13 8 10 8 4 3 7 11 9 7 6 5 8 9 8 9 8 8 9 8 7 7 7 7 7 8 7
5 7 7 3 12 12 3 23 41 30 19 12 2 8 16 13 10 9 8 4 5 9 9 7 6 6 8 10 9 9 8 8 9 9 8 7 6 6 6 6 7 7
3 7 9 10 18 6 5 41 42 13 11 10 7 17 17 8 6 8 9 8 8 9 7 7 8 8 11 11 9 10 8 8 9 8 8 9 7 7 7 6 7 8
5 4 9 14 15 4 22 55 26 -12 2 15 16 20 7 -1 7 13 15 13 8 7 7 8 10 10 11 11 10 10 8 7 7 7 8 8 8 9 8 7 8 9
6 -0 8 13 12 14 33 40 2 -20 4 18 15 9 -1 7 21 21 16 11 7 8 8 8 10 9 8 8 8 8 7 8 7 7 8 8 10 11 9 8 7 7
7 1 7 9 11 19 18 4 -9 2 21 18 8 7 10 18 21 14 10 9 9 8 7 8 8 7 5 5 6 6 8 9 9 9 9 8 10 10 11 11 8 5
12 8 12 16 22 21 3 -8 5 23 26 14 7 10 14 14 11 9 8 10 9 6 4 5 6 5 5 5 6 8 9 9 9 7 3 -1 1 4 8 11 10 8
13 8 14 22 22 9 -3 5 21 22 13 8 7 6 8 10 9 8 8 8 7 3 1 2 2 3 5 6 7 8 8 8 6 2 -2 -4 -0 4 6 9 13 12
8 20 26 21 11 4 8 19 21 16 11 9 8 7 9 11 8 6 8 7 5 3 2 3 3 3 5 7 8 7 7 8 7 6 6 6 8 10 9 10 13 13
16 28 15 4 10 20 28 27 18 15 13 5 3 7 9 9 7 7 9 7 6 7 6 5 5 5 6 8 8 8 8 7 8 11 14 14 13 12 11 12 13 12
20 23 11 16 25 22 23 22 12 9 7 3 7 12 9 7 7 9 10 9 8 8 7 7 6 6 6 7 6 8 6 3 2 6 10 11 11 10 10 11 11 10
11 15 23 32 21 5 11 18 10 8 10 9 11 10 8 8 8 8 9 7 6 7 7 7 5 5 7 8 8 8 5 2 0 3 6 7 9 11 10 9 8 9
7 8 16 15 1 -4 6 9 9 12 12 9 8 6 5 6 5 5 5 5 6 7 9 10 10 11 10 10 11 10 9 7 5 5 5 5 9 13 11 9 8 8
8 10 13 9 6 6 3 1 7 9 5 4 6 5 4 4 4 5 5 5 6 6 8 10 9 6 6 8 12 13 12 10 8 8 7 7 11 13 10 7 7 8
8 10 9 6 8 5 0 2 5 2 2 4 5 4 5 6 6 7 8 9 10 9 12 13 10 7 10 16 20 19 18 16 13 10 8 9 10 8 4 5 7 9
11 10 10 12 10 2 1 6 4 2 4 4 3 6 9 10 8 7 8 11 14 15 18 24 27 25 21 17 14 14 19 23 20 15 14 14 9 2 1 5 8 12
18 15 13 14 8 2 6 9 4 4 6 5 3 3 6 11 11 9 9 11 13 14 15 19 24 22 15 8 4 6 14 22 25 24 22 17 6 0 3 6 9 12
10 14 16 17 13 5 4 1 -4 -2 3 3 1 -1 2 7 7 6 6 5 8 11 9 9 10 8 6 5 6 8 12 17 19 18 13 6 1 2 7 10 10 8
-4 -2 0 4 7 5 5 5 3 2 4 3 1 3 8 11 9 7 4 3 8 10 7 6 7 5 6 8 11 13 12 12 13 11 6 3 3 5 8 9 9 6
6 3 -1 -3 -1 2 4 7 5 4 8 13 14 13 13 11 12 12 9 8 9 8 7 9 10 9 10 12 12 10 7 6 8 7 6 6 6 7 8 7 6 5
12 11 8 6 3 1 1 4 6 8 13 15 12 7 4 4 7 9 8 7 6 5 7 10 10 10 9 8 7 5 3 3 4 4 5 6 6 8 9 6 4 5
Height
5766 5767 5767 5767 5767 5769 5771 5772 5772 5773 5774 5776 5778 5780 5781 5782 5782 5783 5785 5786 5788 5790 5790 5791 5792 5793 5793 5794 5794 5795 5795 5796 5797 5797 5798 5798 5799 5800 5800 5801 5801 5801
5764 5765 5766 5765 5765 5767 5769 5769 5770 5771 5772 5774 5776 5778 5779 5779 5780 5781 5783 5785 5786 5787 5788 5789 5790 5791 5792 5792 5793 5793 5793 5794 5795 5795 5796 5796 5797 5798 5799 5799 5799 5800
5760 5762 5762 5763 5763 5764 5766 5767 5767 5768 5770 5772 5774 5775 5776 5777 5778 5779 5781 5782 5784 5785 5786 5786 5787 5788 5789 5790 5791 5791 5792 5792 5793 5793 5794 5794 5795 5796 5797 5797 5798 5799
5756 5758 5759 5760 5760 5761 5763 5764 5765 5766 5768 5769 5771 5772 5773 5774 5776 5777 5779 5780 5781 5782 5783 5784 5785 5786 5787 5787 5788 5789 5789 5790 5791 5791 5792 5792 5793 5794 5795 5795 5796 5797
5753 5755 5756 5757 5757 5758 5759 5760 5761 5763 5765 5767 5768 5769 5771 5772 5773 5775 5776 5778 5779 5780 5781 5782 5783 5784 5784 5785 5786 5786 5787 5788 5789 5789 5790 5790 5791 5792 5792 5793 5794 5795
5750 5752 5753 5754 5754 5755 5755 5755 5756 5758 5761 5763 5765 5767 5769 5769 5771 5772 5774 5775 5776 5777 5778 5779 5780 5781 5782 5783 5783 5784 5784 5785 5786 5787 5788 5788 5789 5789 5790 5791 5792 5793
5747 5748 5750 5751 5752 5752 5751 5750 5751 5754 5758 5760 5763 5765 5766 5767 5768 5770 5771 5773 5774 5775 5776 5777 5778 5779 5780 5781 5781 5782 5782 5783 5784 5785 5786 5786 5786 5787 5788 5789 5789 5790
5743 5745 5746 5748 5749 5748 5747 5747 5749 5752 5755 5758 5760 5762 5763 5764 5766 5767 5769 5771 5772 5773 5774 5774 5775 5776 5777 5778 5779 5780 5781 5781 5782 5783 5784 5784 5784 5785 5786 5786 5787 5787
5740 5742 5743 5744 5745 5745 5744 5745 5748 5751 5753 5756 5758 5759 5761 5762 5763 5765 5767 5768 5770 5770 5771 5772 5773 5774 5775 5776 5777 5778 5779 5780 5781 5781 5782 5782 5782 5783 5783 5784 5784 5785
5738 5739 5740 5741 5742 5742 5743 5744 5748 5750 5752 5753 5755 5757 5759 5760 5761 5762 5764 5766 5767 5768 5768 5770 5771 5772 5773 5774 5775 5776 5777 5778 5778 5779 5779 5780 5781 5781 5782 5782 5782 5783
5735 5737 5738 5738 5739 5740 5741 5744 5746 5748 5749 5751 5753 5755 5756 5757 5759 5760 5762 5764 5765 5765 5766 5767 5769 5770 5771 5772 5773 5774 5775 5775 5776 5777 5777 5778 5778 5779 5780 5779 5780 5780
5732 5734 5734 5735 5736 5737 5740 5742 5744 5745 5747 5749 5751 5752 5754 5755 5756 5758 5760 5761 5762 5763 5764 5765 5767 5768 5769 5770 5771 5772 5773 5773 5774 5774 5775 5775 5776 5777 5777 5777 5777 5777
5729 5730 5732 5733 5734 5735 5738 5740 5741 5743 5744 5746 5748 5749 5751 5752 5754 5756 5757 5759 5760 5761 5762 5764 5765 5766 5766 5768 5769 5769 5770 5771 5771 5772 5772 5772 5773 5774 5774 5775 5775 5775
5727 5728 5730 5732 5733 5733 5735 5737 5738 5740 5742 5744 5746 5747 5748 5750 5752 5753 5755 5756 5757 5759 5761 5762 5762 5763 5764 5765 5766 5767 5767 5768 5769 5769 5770 5770 5770 5771 5771 5772 5773 5772
5725 5727 5728 5730 5732 5733 5733 5734 5736 5737 5739 5741 5743 5745 5747 5749 5750 5751 5753 5754 5756 5758 5759 5759 5760 5761 5761 5762 5763 5764 5765 5765 5766 5766 5767 5767 5767 5767 5768 5769 5770 5769
5724 5726 5727 5727 5730 5732 5732 5733 5734 5736 5737 5739 5741 5743 5746 5747 5748 5750 5752 5753 5755 5756 5756 5756 5757 5758 5758 5759 5760 5761 5762 5763 5763 5763 5764 5764 5765 5764 5765 5766 5766 5767
5722 5725 5726 5726 5728 5730 5731 5732 5733 5735 5737 5739 5741 5743 5744 5746 5747 5749 5750 5751 5752 5752 5753 5754 5754 5755 5755 5756 5757 5758 5759 5759 5760 5761 5761 5762 5762 5762 5762 5763 5763 5764
5721 5723 5724 5726 5727 5728 5730 5731 5733 5735 5737 5738 5739 5741 5742 5744 5745 5746 5747 5748 5749 5749 5750 5750 5751 5752 5752 5753 5753 5754 5755 5756 5756 5757 5758 5759 5759 5760 5760 5760 5761 5761
5719 5721 5723 5725 5726 5727 5729 5731 5732 5734 5735 5736 5737 5739 5740 5741 5742 5743 5744 5745 5745 5746 5746 5747 5748 5749 5749 5750 5750 5751 5751 5752 5753 5754 5755 5756 5757 5757 5757 5758 5758 5759
5718 5720 5722 5723 5725 5726 5728 5729 5731 5732 5733 5734 5735 5736 5737 5738 5739 5741 5741 5742 5742 5742 5743 5744 5744 5745 5746 5747 5747 5748 5748 5749 5750 5750 5752 5753 5754 5755 5755 5755 5756 5756
5716 5718 5720 5722 5723 5725 5726 5727 5728 5730 5731 5731 5732 5734 5735 5736 5737 5737 5738 5738 5739 5739 5740 5740 5740 5741 5743 5744 5744 5745 5745 5745 5746 5747 5749 5750 5751 5752 5752 5752 5753 5753
5714 5716 5718 5719 5721 5723 5724 5724 5725 5727 5728 5728 5729 5731 5732 5732 5733 5734 5734 5735 5735 5736 5737 5737 5738 5739 5740 5741 5742 5742 5742 5742 5743 5744 5745 5747 5748 5749 5749 5749 5750 5750
5712 5713 5715 5717 5718 5720 5721 5722 5723 5724 5724 5725 5726 5727 5728 5729 5730 5731 5731 5732 5733 5734 5734 5735 5736 5736 5737 5738 5739 5739 5739 5740 5740 5741 5743 5744 5745 5745 5746 5746 5746 5746
5710 5711 5713 5714 5715 5716 5718 5720 5721 5720 5721 5722 5723 5724 5725 5726 5727 5728 5728 5729 5730 5731 5732 5733 5733 5734 5735 5735 5736 5736 5736 5737 5738 5739 5740 5740 5741 5741 5742 5742 5742 5742
5707 5709 5710 5711 5713 5714 5715 5717 5718 5718 5719 5719 5720 5720 5722 5723 5724 5725 5725 5726 5727 5728 5729 5730 5730 5731 5731 5732 5732 5733 5733 5734 5735 5736 5736 5736 5736 5737 5738 5739 5739 5739
5704 5706 5708 5708 5710 5711 5712 5714 5714 5715 5715 5716 5716 5717 5718 5719 5720 5721 5722 5723 5724 5724 5726 5726 5727 5728 5728 5729 5729 5730 5730 5731 5732 5732 5732 5732 5733 5733 5734 5735 5736 5736